User: anonymous   Login
Location: Newark
(15.4608°S, 41.1635°W)
Time: 10:25:53
(UTC+00:00)
Language:

Tiros 1 - Orbit

View from above orbital plane
View from above orbital plane
View from above satellite
View from above satellite

Ground track
Ground track

The orbit data is extracted from the following two-line orbital elements,

1    29U 60002B   21060.11302115 -.00000083  00000-0  18529-4 0  9993
2    29  48.3792 177.3187 0024525 250.6741 109.1518 14.74407590256530
Epoch (UTC): 01 March 2021 02:42:45
Eccentricity: 0.0024525
inclination: 48.3792°
perigee height: 630 km
apogee height: 664 km
right ascension of ascending node: 177.3187°
argument of perigee: 250.6741°
revolutions per day: 14.74407590
mean anomaly at epoch: 109.1518°
orbit number at epoch: 25653

The dashed part of the orbit path shows where the satellite is in the earth's shadow,  

DLR